TimeCST,TemperatureF,Dew PointF,Humidity,Sea Level PressureIn,VisibilityMPH,Wind Direction,Wind SpeedMPH,Gust SpeedMPH,PrecipitationIn,Events,Conditions,WindDirDegrees,DateUTC
12:53 AM,44.1,39.0,82,30.22,10.0,Calm,Calm,-,N/A,,Clear,0,2013-01-20 06:53:00
1:53 AM,39.9,37.9,93,30.22,10.0,Calm,Calm,-,N/A,,Clear,0,2013-01-20 07:53:00
2:53 AM,39.9,37.9,93,30.22,10.0,Calm,Calm,-,N/A,,Clear,0,2013-01-20 08:53:00
3:53 AM,39.9,37.0,89,30.21,8.0,Calm,Calm,-,N/A,,Clear,0,2013-01-20 09:53:00
4:53 AM,41.0,37.0,86,30.19,10.0,Calm,Calm,-,N/A,,Clear,0,2013-01-20 10:53:00
5:53 AM,37.0,34.0,89,30.20,4.0,Calm,Calm,-,N/A,,Clear,0,2013-01-20 11:53:00
6:20 AM,35.6,33.8,93,30.21,1.8,Calm,Calm,-,N/A,,Clear,0,2013-01-20 12:20:00
6:30 AM,35.6,33.8,93,30.21,3.0,Calm,Calm,-,N/A,,Clear,0,2013-01-20 12:30:00
6:53 AM,36.0,34.0,93,30.21,3.0,Calm,Calm,-,N/A,,Clear,0,2013-01-20 12:53:00
7:12 AM,35.6,33.8,93,30.21,0.8,Calm,Calm,-,N/A,,Clear,0,2013-01-20 13:12:00
7:27 AM,35.6,33.8,93,30.21,1.0,Calm,Calm,-,N/A,,Clear,0,2013-01-20 13:27:00
7:32 AM,35.6,33.8,93,30.22,0.2,Calm,Calm,-,N/A,Fog,Fog,0,2013-01-20 13:32:00
7:39 AM,35.6,33.8,93,30.22,0.2,Calm,Calm,-,N/A,Fog,Fog,0,2013-01-20 13:39:00
7:53 AM,36.0,34.0,93,30.22,0.2,Calm,Calm,-,N/A,Fog,Fog,0,2013-01-20 13:53:00
8:26 AM,41.0,37.4,87,30.21,1.2,Calm,Calm,-,N/A,,Partly Cloudy,0,2013-01-20 14:26:00
8:35 AM,42.8,41.0,93,30.22,2.5,Calm,Calm,-,N/A,,Clear,0,2013-01-20 14:35:00
8:53 AM,46.0,43.0,89,30.22,4.0,Calm,Calm,-,N/A,,Clear,0,2013-01-20 14:53:00
9:53 AM,53.1,46.9,80,30.23,10.0,South,4.6,-,N/A,,Clear,180,2013-01-20 15:53:00
10:53 AM,57.9,48.0,70,30.23,10.0,South,8.1,-,N/A,,Clear,180,2013-01-20 16:53:00
11:53 AM,61.0,46.0,58,30.21,10.0,SSE,8.1,-,N/A,,Clear,160,2013-01-20 17:53:00
12:53 PM,64.9,44.1,47,30.15,10.0,SSE,11.5,19.6,N/A,,Clear,160,2013-01-20 18:53:00
1:53 PM,66.0,45.0,47,30.12,10.0,South,9.2,-,N/A,,Clear,170,2013-01-20 19:53:00
2:53 PM,66.9,46.9,49,30.10,10.0,South,11.5,-,N/A,,Clear,180,2013-01-20 20:53:00
3:53 PM,68.0,46.0,45,30.09,10.0,SE,9.2,-,N/A,,Clear,140,2013-01-20 21:53:00
4:53 PM,66.9,45.0,45,30.08,10.0,SSE,9.2,-,N/A,,Clear,150,2013-01-20 22:53:00
5:53 PM,62.1,44.1,52,30.09,10.0,SSE,4.6,-,N/A,,Clear,150,2013-01-20 23:53:00
6:53 PM,57.0,44.1,62,30.11,10.0,Calm,Calm,-,N/A,,Clear,0,2013-01-21 00:53:00
7:53 PM,51.1,43.0,74,30.12,10.0,Calm,Calm,-,N/A,,Clear,0,2013-01-21 01:53:00
8:53 PM,50.0,43.0,77,30.12,10.0,Calm,Calm,-,N/A,,Clear,0,2013-01-21 02:53:00
9:53 PM,51.1,44.1,77,30.12,10.0,Calm,Calm,-,N/A,,Clear,0,2013-01-21 03:53:00
10:53 PM,46.9,43.0,86,30.13,10.0,Calm,Calm,-,N/A,,Clear,0,2013-01-21 04:53:00
11:53 PM,45.0,42.1,90,30.13,10.0,Calm,Calm,-,N/A,,Clear,0,2013-01-21 05:53:00